[Iaude] MPEC A50: 2024 AZ [a=1.63,e=0.23,i=8.9,H=23.4]
    mpec at marsden.cfa.harvard.edu 
    mpec at marsden.cfa.harvard.edu
       
    Fri Jan  5 09:00:27 EST 2024
    
    
  
M.P.E.C. 2024-A50                               Issued 2024 January 5, 13:58 UT
     The Minor Planet Electronic Circulars contain information on unusual
         minor planets, routine data on comets and natural satellites,
         and occasional editorial announcements.  They are published
    on behalf of Division F of the International Astronomical Union by the
          Minor Planet Center, Smithsonian Astrophysical Observatory,
                          Cambridge, MA 02138, U.S.A.
			  
             Prepared using the Tamkin Foundation Computer Network
                              MPC at CFA.HARVARD.EDU
            URL https://www.minorplanetcenter.net/    ISSN 1523-6714
                                    2024 AZ                                     
Observations:
     K24A00Z  C2024 01 03.38136306 32 00.781+38 11 55.77         20.66GVEA050F51
     K24A00Z  C2024 01 03.39268406 32 00.053+38 11 35.39         21.36GVEA050F51
     K24A00Z* C2024 01 03.40402106 31 59.326+38 11 14.35         21.81wXEA050F51
     K24A00Z  C2024 01 03.41538006 31 58.599+38 10 53.32         22.36wXEA050F51
     K24A00Z  C2024 01 03.53411506 31 51.208+38 07 08.14         21.90GVEA050F51
     K24A00Z  C2024 01 03.53475606 31 51.176+38 07 07.01         22.25GVEA050F51
     K24A00Z 7C2024 01 04.20787506 31 18.369+37 45 52.62         22.4 GVEA050Z84
     K24A00Z 7C2024 01 04.21963906 31 17.818+37 45 30.22         21.7 GVEA050Z84
     K24A00Z KC2024 01 05.15823206 30 36.99 +37 16 12.8          21.9 GVEA050H21
     K24A00Z KC2024 01 05.16382506 30 36.69 +37 16 02.0          21.9 GVEA050H21
     K24A00Z KC2024 01 05.17174606 30 36.23 +37 15 47.4          22.0 GVEA050H21
     K24A00Z KC2024 01 05.17454206 30 36.08 +37 15 42.4          22.0 GVEA050H21
Observer details:
F51 Pan-STARRS 1, Haleakala.  Observers J. Herman, T. Lowe, P. Minguez, A.
    Schultz, I. Smith.  Measurers K. Chambers, T. de Boer, J. Fairlamb, H.
    Gao, M. Huber, C.-C. Lin, E. Magnier, Y. Ramanjooloo, R. Wainscoat, R.
    Weryk.  1.8-m Ritchey-Chretien + CCD.
H21 Astronomical Research Observatory, Westfield.  Observer R. Holmes.
    Measurers T. Linder, R. Holmes, L. Horn.  0.76-m f/3.0 astrograph + CCD.
Z84 Calar Alto-Schmidt.  Observers F. Ocana, R. Kresken, M. Micheli, L.
    Conversi.  Measurers F. Ocana, M. Micheli.  0.8-m f/3 Schmidt + CCD.
Orbital elements:
2024 AZ                                                  Earth MOID = 0.2876 AU
Epoch 2023 Sept. 13.0 TT = JDT 2460200.5                MPC                     
M 317.87876              (2000.0)            P               Q                  
n   0.47297782     Peri.  139.36620     +0.12210886     -0.98406649             
a   1.6314566      Node   303.24216     +0.86589553     +0.16926519             
e   0.2307911      Incl.    8.88923     +0.48509211     -0.05442828             
P   2.08           H   23.45          G   0.15           U   9                  
Residuals in seconds of arc
240103 F51  0.0   0.3-    240103 F51  0.4+  0.0     240105 H21  0.1-  0.2+
240103 F51  0.1-  0.1+    240103 F51  0.5+  0.1+    240105 H21  0.1+  0.2-
240103 F51  0.1-  0.0     240104 Z84  0.3-  0.3-    240105 H21  0.0   0.1-
240103 F51  0.1-  0.0     240104 Z84  0.1+  0.4+    240105 H21  0.1+  0.1+
Ephemeris:
2024 AZ                  a,e,i = 1.63, 0.23, 9                   q = 1.2549
Date    TT    R. A. (2000) Decl.     Delta      r    Elong.  Phase     V
2023 12 06    06 51 03.3 +48 32 18   0.3162  1.2555   144.2    27.4    22.7
...
2023 12 21    06 43 57.1 +44 19 59   0.2918  1.2571   156.7    18.0    22.2
...
2023 12 29    06 36 42.7 +40 52 37   0.2891  1.2619   162.3    13.7    22.0
...
2024 01 04    06 31 30.3 +37 52 35   0.2926  1.2672   164.1    12.3    22.0
2024 01 05    06 30 43.5 +37 21 15   0.2936  1.2682   164.1    12.3    22.0
2024 01 06    06 29 58.6 +36 49 41   0.2948  1.2693   164.0    12.4    22.1
...
2024 01 12    06 26 21.9 +33 37 46   0.3051  1.2766   161.6    14.1    22.2
...
2024 01 20    06 24 24.7 +29 28 25   0.3267  1.2884   155.5    18.4    22.5
...
2024 02 04    06 30 01.0 +22 52 46   0.3894  1.3165   142.6    27.1    23.2
A. U. Tomatic                (C) Copyright 2024 MPC           M.P.E.C. 2024-A50
    
    
More information about the Iaude
mailing list